Jackson, MI

9:10 PM EST on November 18, 2019 (GMT -0500)
Jackson County-Reynolds

Weather History for KJXN - July, 2019

Change the Weather History Date:

Tuesday, July 23, 2019

  Actual Average Record
Temperature  
Mean Temperature 66 °F 71 °F  
Max Temperature 79 °F 82 °F 96 °F (1984)
Min Temperature 52 °F 60 °F 45 °F (1985)
Degree Days  
Heating Degree Days 0 0  
Month to date heating degree days 0 1  
Since 1 June heating degree days 58 56  
Since 1 July heating degree days 0 1  
Cooling Degree Days 1 6  
Month to date cooling degree days 236 156  
Year to date cooling degree days 339 319  
Since 1 June cooling degree days 329 282  
Growing Degree Days 16 (Base 50)    
Moisture  
Dew Point 55 °F    
Average Humidity 70    
Maximum Humidity 100    
Minimum Humidity 40    
Precipitation  
Precipitation 0.17 in 0.12 in 1.65 in (2010)
Month to date precipitation 2.24 2.59  
Year to date precipitation 18.96 16.46  
Sea Level Pressure  
Sea Level Pressure 30.04 in    
Wind  
Wind Speed 6 mph (WNW)    
Max Wind Speed 15 mph    
Max Gust Speed 24 mph    
Visibility 9 miles    
Events Rain , Thunderstorm    
T = Trace of Precipitation, MM = Missing Value Source: NWS Daily Summary

Daily Weather History Graph

Daily Weather History Graph

Search for Another Location

Airport or City:

Astronomy

Jul. 23, 2019 Rise Set
Actual Time 6:21 AM EDT 9:06 PM EDT
Civil Twilight 5:48 AM EDT 9:39 PM EDT
Nautical Twilight 5:07 AM EDT 10:20 PM EDT
Astronomical Twilight 4:20 AM EDT 11:07 PM EDT
Moon 12:21 AM EDT (7/23) 12:40 PM EDT (7/23)
Length of Visible Light 15h 50m
Length of Day
14h 44m
Waning Gibbous, 63% of the Moon is Illuminated
Jul 23
Waning Gibbous
Jul 24
Last Quarter
Jul 31
New
Aug 7
First Quarter
Aug 15
Full

Hourly Weather History & Observations

Time (EDT) Temp. Dew Point Humidity Pressure Visibility Wind Dir Wind Speed Gust Speed Precip Events Conditions
12:56 AM 62.1 °F 54.0 °F 75% 30.04 in 10.0 mi WNW 3.5 mph - N/A   Clear
1:56 AM 62.1 °F 53.1 °F 72% 30.04 in 10.0 mi WNW 3.5 mph - N/A   Scattered Clouds
2:56 AM 57.0 °F 52.0 °F 83% 30.04 in 10.0 mi West 3.5 mph - N/A   Clear
3:56 AM 55.0 °F 52.0 °F 89% 30.04 in 10.0 mi West 3.5 mph - N/A   Clear
4:56 AM 54.0 °F 51.1 °F 90% 30.04 in 10.0 mi West 3.5 mph - N/A   Clear
5:56 AM 55.0 °F 51.1 °F 86% 30.04 in 10.0 mi West 3.5 mph - N/A   Clear
6:56 AM 55.9 °F 51.1 °F 84% 30.04 in 10.0 mi West 3.5 mph - N/A   Clear
7:56 AM 59.0 °F 52.0 °F 78% 30.05 in 10.0 mi Variable 4.6 mph - N/A   Clear
8:56 AM 64.0 °F 54.0 °F 70% 30.06 in 10.0 mi WNW 4.6 mph - N/A   Clear
9:56 AM 66.9 °F 50.0 °F 54% 30.07 in 10.0 mi WNW 6.9 mph - N/A   Clear
10:56 AM 71.1 °F 50.0 °F 47% 30.06 in 10.0 mi Variable 5.8 mph - N/A   Clear
11:56 AM 73.0 °F 50.0 °F 44% 30.06 in 10.0 mi NW 9.2 mph - N/A   Clear
12:56 PM 75.0 °F 51.1 °F 43% 30.05 in 10.0 mi NW 11.5 mph - N/A   Clear
1:56 PM 75.9 °F 51.1 °F 42% 30.04 in 10.0 mi West 8.1 mph - N/A   Clear
2:56 PM 77.0 °F 51.1 °F 40% 30.02 in 10.0 mi NW 8.1 mph 17.3 mph N/A   Clear
3:56 PM 75.9 °F 52.0 °F 43% 30.02 in 10.0 mi West 6.9 mph - N/A   Scattered Clouds
4:56 PM 75.0 °F 55.0 °F 50% 30.01 in 10.0 mi WSW 6.9 mph - N/A   Clear
5:56 PM 75.9 °F 55.0 °F 48% 30.00 in 10.0 mi West 12.7 mph 19.6 mph N/A   Scattered Clouds
6:41 PM 70.0 °F 57.0 °F 63% 30.03 in 10.0 mi NNE 13.8 mph 19.6 mph N/A Thunderstorm Mostly Cloudy
6:56 PM 66.9 °F 57.0 °F 70% 30.04 in 10.0 mi NNE 13.8 mph 21.9 mph N/A Thunderstorm Overcast
7:16 PM 63.0 °F 57.9 °F 84% 30.04 in 2.5 mi North 5.8 mph 20.7 mph 0.06 in Rain , Thunderstorm Thunderstorms and Rain
7:31 PM 61.0 °F 57.9 °F 90% 30.04 in 1.5 mi Variable 5.8 mph - 0.16 in Rain , Thunderstorm Thunderstorms and Rain
7:35 PM 61.0 °F 57.9 °F 90% 30.04 in 3.0 mi WSW 3.5 mph - 0.16 in Rain , Thunderstorm Light Thunderstorms and Rain
7:56 PM 62.1 °F 60.1 °F 93% 30.04 in 10.0 mi SSW 8.1 mph - 0.17 in Rain , Thunderstorm Light Thunderstorms and Rain
8:18 PM 62.1 °F 59.0 °F 90% 30.03 in 10.0 mi SSW 4.6 mph - 0.00 in   Partly Cloudy
8:56 PM 60.1 °F 57.9 °F 93% 30.04 in 10.0 mi Calm Calm - 0.00 in   Clear
9:56 PM 62.1 °F 60.1 °F 93% 30.05 in 10.0 mi NW 3.5 mph - N/A   Scattered Clouds
10:56 PM 60.1 °F 59.0 °F 96% 30.06 in 9.0 mi Calm Calm - N/A   Clear
11:38 PM 57.9 °F 57.9 °F 100% 30.06 in 2.0 mi Calm Calm - N/A   Clear
11:48 PM 59.0 °F 57.9 °F 96% 30.07 in 10.0 mi Calm Calm - N/A   Clear
11:56 PM 57.9 °F 57.9 °F 100% 30.07 in 10.0 mi Calm Calm - N/A   Clear